Flag for Germany Weather past 2 weeks in Frechen, North Rhine-Westphalia, Germany

Now
52 °F

Passing clouds.


Feels Like: 49 °F
Forecast: 33 / 58 °F
Wind: 9 mph from Southwest

Location: Noervenich

Current Time: Apr 28, 2015 at 3:00:56 PM

Latest Report: Apr 28, 2015 at 2:20 PM


Visibility: N/A

Pressure: 30.01 "Hg

Humidity: 54%

Dew point: 36 °F

Location of FrechenLocation

Historic Weather in Frechen — Graph

°F

Frechen temperature yesterday

Maximum temperature yesterday: 54 °F (at 12:20 AM)
Minimum temperature yesterday: 43 °F (at 10:20 PM)
Average temperature yesterday: 48 °F

Past Weeks' High & Low Weather Summary

 TemperatureHumidityPressure
High75 °F (Apr 15, 2:20 PM)100% (Apr 23, 6:01 AM)30.48 "Hg (Apr 23, 6:01 AM)
Low34 °F (Apr 19, 6:20 AM)27% (Apr 24, 3:20 PM)29.62 "Hg (Apr 27, 1:20 AM)
Average53 °F66%30.08 "Hg
* Reported Apr 13 1:20 PM — Apr 28 1:20 PM, Frechen, Weather by CustomWeather, © 2015

Note: Actual official high and low records may vary slightly from our data, if they occured in-between our weather recording intervals... More about our weather records

Advertising

Frechen weather history for previous 24 hours

 ConditionsComfort  
Time TempWeatherWind HumidityBarometerVisibility
1:20 PM
Tue, Apr 28
54 °FScattered clouds.15 mph51%30.01 "HgN/A
12:20 PM52 °FScattered clouds.12 mph58%29.98 "HgN/A
11:20 AM52 °FScattered clouds.10 mph58%29.98 "HgN/A
10:20 AM50 °FScattered clouds.12 mph58%29.98 "HgN/A
9:20 AM45 °FScattered clouds.6 mph76%29.95 "HgN/A
8:20 AM41 °FPartly sunny.7 mph81%29.95 "HgN/A
7:20 AM37 °FScattered clouds.1 mph87%29.92 "HgN/A
6:20 AM36 °FPassing clouds.3 mph93%29.89 "HgN/A
5:20 AM37 °FPassing clouds.3 mph87%29.89 "HgN/A
4:20 AM39 °FPassing clouds.3 mph81%29.86 "HgN/A
3:20 AM39 °FPassing clouds.2 mph81%29.86 "HgN/A
2:20 AM41 °FPassing clouds.5 mph76%29.86 "HgN/A
1:20 AM43 °FPassing clouds.3 mph76%29.83 "HgN/A
12:20 AM46 °FPassing clouds.3 mph82%29.83 "HgN/A
11:20 PM
Mon, Apr 27
43 °FPassing clouds.2 mph87%29.80 "HgN/A
10:20 PM43 °FPassing clouds.1 mph87%29.80 "HgN/A
9:20 PM46 °FBroken clouds.2 mph76%29.80 "HgN/A
8:20 PM48 °FPartly sunny.2 mph71%29.77 "HgN/A
7:20 PM50 °FPartly sunny.3 mph67%29.77 "HgN/A
6:20 PM48 °FPartly sunny.3 mph71%29.77 "HgN/A
5:20 PM48 °FPartly sunny.5 mph71%29.77 "HgN/A
4:20 PM48 °FBroken clouds.8 mph71%29.77 "HgN/A
3:20 PM48 °FPartly sunny.6 mph71%29.77 "HgN/A
Weather by CustomWeather, © 2015

See weather overviewHow to use our weather pages